Date String (YYYY-MM-DD hh:mm:ss) UTC,Instrument flags,absolute air pressure of the measurement (hPa),sample flow rate (lpm),inlet stack bypass flow (lpm),air temperature of the measurement (°C),ambient temperature measured by the external sensor (°C),aerosol sample conditioner tube jacket temperature (°C),OPC LED temperature (°C),internal box temperature (°C),relative humidity of the measurement (%),span deviation,mass concentration of particles derived from Lorenz-Mie calculation of OPC scattering (μg/m³),mass concentration of particles derived from Lorenz-Mie calculation of OPC scattering (μg/m³),mass concentration of particles derived from Lorenz-Mie calculation of OPC scattering (μg/m³)
DateTimeUTC,F1_M11,P_M11,Q1_M11,Q2_M11,T1_M11,T2_M11,T3_M11,T4_M11,T5_M11,U1_M11,ZSPAN_M11,X0_M11,X2_M11,X1_M11
2024-02-21 07:00:00,SystemResetWarning,0828.6,5.01,000.00,024.8,024.1,000.0,033.2,026.6,14.8,0000.0,0001.54,0000.68,0000.58
2024-02-21 07:01:00,SystemResetWarning,0828.6,5.02,000.00,024.8,024.1,000.0,033.3,026.7,14.8,0000.0,0001.67,0000.70,0000.58
2024-02-21 07:02:00,SystemResetWarning,0828.6,5.00,000.00,024.8,024.1,000.0,033.3,026.7,14.8,0000.0,0001.65,0000.70,0000.57
2024-02-21 07:03:00,SystemResetWarning,0828.6,4.99,000.00,024.8,024.1,000.0,033.3,026.7,14.8,0000.0,0001.33,0000.69,0000.57
2024-02-21 07:04:00,SystemResetWarning,0828.6,5.00,000.00,024.8,024.1,000.0,033.3,026.7,14.8,0000.0,0001.28,0000.69,0000.57
2024-02-21 07:05:00,SystemResetWarning,0828.6,5.01,000.00,024.8,024.1,000.0,033.3,026.7,14.7,0000.0,0001.17,0000.69,0000.57
2024-02-21 07:06:00,SystemResetWarning,0828.6,5.01,000.00,024.8,024.1,000.0,033.3,026.7,14.7,0000.0,0001.12,0000.69,0000.57
2024-02-21 07:07:00,SystemResetWarning,0828.6,4.99,000.00,024.8,024.1,000.0,033.3,026.7,14.7,0000.0,0001.15,0000.70,0000.57
2024-02-21 07:08:00,SystemResetWarning,0828.6,5.00,000.00,024.8,024.1,000.0,033.3,026.6,14.8,0000.0,0001.19,0000.73,0000.58
2024-02-21 07:09:00,SystemResetWarning,0828.5,5.00,000.00,024.8,024.0,000.0,033.2,026.6,14.8,0000.0,0001.22,0000.74,0000.58
2024-02-21 07:10:00,SystemResetWarning,0828.6,4.99,000.00,024.8,024.0,000.0,033.2,026.6,14.9,0000.0,0001.24,0000.75,0000.59
2024-02-21 07:11:00,SystemResetWarning,0828.6,5.00,000.00,024.8,024.0,000.0,033.2,026.6,14.9,0000.0,0001.27,0000.76,0000.59
2024-02-21 07:12:00,SystemResetWarning,0828.5,5.01,000.00,024.7,024.0,000.0,033.2,026.6,15.0,0000.0,0001.25,0000.76,0000.59
2024-02-21 07:13:00,SystemResetWarning,0828.6,5.00,000.00,024.7,024.0,000.0,033.2,026.6,15.0,0000.0,0001.70,0000.78,0000.60
2024-02-21 07:14:00,SystemResetWarning,0828.6,5.01,000.00,024.7,024.0,000.0,033.2,026.6,15.1,0000.0,0002.03,0000.80,0000.61
2024-02-21 07:15:00,SystemResetWarning,0828.6,5.00,000.00,024.7,024.0,000.0,033.2,026.6,15.0,0000.0,0002.02,0000.80,0000.62
2024-02-21 07:16:00,SystemResetWarning,0828.5,5.00,000.00,024.7,024.0,000.0,033.2,026.6,14.8,0000.0,0003.11,0000.78,0000.62
2024-02-21 07:17:00,SystemResetWarning,0828.5,5.00,000.00,024.7,024.0,000.0,033.2,026.5,14.9,0000.0,0003.34,0000.78,0000.62
2024-02-21 07:18:00,SystemResetWarning,0828.5,4.99,000.00,024.7,024.0,000.0,033.2,026.5,15.0,0000.0,0003.42,0000.81,0000.63
2024-02-21 07:19:00,SystemResetWarning,0828.5,5.00,000.00,024.7,023.9,000.0,033.2,026.5,15.0,0000.0,0003.49,0000.82,0000.63
2024-02-21 07:20:00,SystemResetWarning,0828.4,5.00,000.00,024.7,023.9,000.0,033.2,026.5,15.0,0000.0,0003.49,0000.82,0000.63
2024-02-21 07:21:00,SystemResetWarning,0828.4,5.00,000.00,024.7,023.9,000.0,033.2,026.5,15.1,0000.0,0003.52,0000.83,0000.64
2024-02-21 07:22:00,SystemResetWarning,0828.3,5.01,000.00,024.7,023.9,000.0,033.2,026.5,15.0,0000.0,0003.55,0000.84,0000.64
2024-02-21 07:23:00,SystemResetWarning,0828.3,5.01,000.00,024.7,023.9,000.0,033.2,026.6,15.0,0000.0,0003.68,0000.83,0000.64
2024-02-21 07:24:00,SystemResetWarning,0828.3,5.00,000.00,024.7,023.9,000.0,033.2,026.6,15.0,0000.0,0003.42,0000.83,0000.65
2024-02-21 07:25:00,SystemResetWarning,0828.3,4.99,000.00,024.7,023.9,000.0,033.2,026.6,14.9,0000.0,0002.86,0000.84,0000.66
2024-02-21 07:26:00,SystemResetWarning,0828.3,5.00,000.00,024.7,023.9,000.0,033.2,026.5,14.9,0000.0,0002.92,0000.87,0000.68
2024-02-21 07:27:00,SystemResetWarning,0828.3,4.99,000.00,024.7,023.9,000.0,033.2,026.5,14.9,0000.0,0002.30,0000.88,0000.69
2024-02-21 07:28:00,SystemResetWarning,0828.3,5.00,000.00,024.7,023.9,000.0,033.2,026.5,14.9,0000.0,0001.59,0000.92,0000.70
2024-02-21 07:29:00,SystemResetWarning,0828.3,5.00,000.00,024.7,023.9,000.0,033.2,026.6,15.0,0000.0,0001.56,0000.92,0000.70
2024-02-21 07:30:00,SystemResetWarning,0828.3,5.00,000.00,024.7,023.9,000.0,033.2,026.5,14.9,0000.0,0001.48,0000.92,0000.72
2024-02-21 07:31:00,SystemResetWarning,0828.3,5.01,000.00,024.7,023.9,000.0,033.2,026.5,14.9,0000.0,0001.53,0000.94,0000.73
2024-02-21 07:32:00,SystemResetWarning,0828.3,5.00,000.00,024.6,023.9,000.0,033.2,026.5,15.0,0000.0,0001.60,0000.95,0000.75
2024-02-21 07:33:00,SystemResetWarning,0828.3,5.00,000.00,024.6,023.9,000.0,033.2,026.5,15.1,0000.0,0001.62,0000.98,0000.77
2024-02-21 07:34:00,SystemResetWarning,0828.3,5.00,000.00,024.6,023.9,000.0,033.2,026.5,15.1,0000.0,0001.48,0000.99,0000.79
2024-02-21 07:35:00,SystemResetWarning,0828.2,5.00,000.00,024.6,023.9,000.0,033.2,026.4,15.1,0000.0,0001.50,0001.01,0000.80
2024-02-21 07:36:00,SystemResetWarning,0828.2,4.99,000.00,024.6,023.8,000.0,033.2,026.4,15.2,0000.0,0001.54,0001.04,0000.82
2024-02-21 07:37:00,SystemResetWarning,0828.1,4.99,000.00,024.6,023.8,000.0,033.1,026.4,15.2,0000.0,0001.58,0001.07,0000.83
2024-02-21 07:38:00,SystemResetWarning,0828.1,5.00,000.00,024.5,023.8,000.0,033.1,026.3,15.3,0000.0,0001.62,0001.10,0000.85
2024-02-21 07:39:00,SystemResetWarning,0828.1,5.00,000.00,024.5,023.7,000.0,033.1,026.3,15.3,0000.0,0001.64,0001.09,0000.86
2024-02-21 07:40:00,SystemResetWarning,0828.1,5.00,000.00,024.5,023.7,000.0,033.1,026.3,15.4,0000.0,0002.83,0001.11,0000.90
2024-02-21 07:41:00,SystemResetWarning,0828.0,5.00,000.00,024.5,023.6,000.0,033.1,026.2,15.4,0000.0,0003.32,0001.13,0000.91
2024-02-21 07:42:00,SystemResetWarning,0828.0,5.00,000.00,024.4,023.6,000.0,033.0,026.2,15.5,0000.0,0003.53,0001.17,0000.92
2024-02-21 07:43:00,SystemResetWarning,0828.0,4.99,000.00,024.4,023.6,000.0,033.0,026.2,15.4,0000.0,0003.50,0001.18,0000.93
2024-02-21 07:44:00,SystemResetWarning,0828.0,5.00,000.00,024.4,023.6,000.0,033.0,026.2,15.4,0000.0,0003.53,0001.21,0000.95
2024-02-21 07:45:00,SystemResetWarning,0828.0,5.00,000.00,024.4,023.6,000.0,033.0,026.1,15.4,0000.0,0003.59,0001.24,0000.97
2024-02-21 07:46:00,SystemResetWarning,0828.0,5.00,000.00,024.4,023.5,000.0,033.0,026.1,15.3,0000.0,0004.29,0001.29,0001.00
2024-02-21 07:47:00,SystemResetWarning,0827.9,5.00,000.00,024.3,023.5,000.0,033.0,026.1,15.5,0000.0,0004.50,0001.33,0001.03
2024-02-21 07:48:00,SystemResetWarning,0827.9,5.00,000.00,024.3,023.5,000.0,032.9,026.1,15.6,0000.0,0004.78,0001.39,0001.04
2024-02-21 07:49:00,SystemResetWarning,0828.0,5.01,000.00,024.3,023.5,000.0,032.9,026.1,15.5,0000.0,0005.75,0001.48,0001.06
2024-02-21 07:50:00,SystemResetWarning,0828.1,5.00,000.00,024.3,023.5,000.0,032.9,026.1,15.5,0000.0,0006.91,0001.56,0001.09
2024-02-21 07:51:00,SystemResetWarning,0828.1,4.99,000.00,024.3,023.5,000.0,032.9,026.1,15.6,0000.0,0006.55,0001.63,0001.11
2024-02-21 07:52:00,SystemResetWarning,0828.1,5.00,000.00,024.3,023.6,000.0,032.9,026.2,15.7,0000.0,0005.73,0001.69,0001.14
2024-02-21 07:53:00,SystemResetWarning,0828.1,5.00,000.00,024.3,023.6,000.0,032.9,026.2,15.7,0000.0,0005.69,0001.73,0001.16
2024-02-21 07:54:00,SystemResetWarning,0828.0,5.00,000.00,024.3,023.6,000.0,032.9,026.2,15.7,0000.0,0005.69,0001.76,0001.18
2024-02-21 07:55:00,SystemResetWarning,0827.9,5.00,000.00,024.3,023.6,000.0,032.9,026.2,15.7,0000.0,0006.16,0001.77,0001.19
2024-02-21 07:56:00,SystemResetWarning,0827.8,4.99,000.00,024.3,023.6,000.0,032.9,026.2,15.7,0000.0,0006.57,0001.77,0001.19
2024-02-21 07:57:00,SystemResetWarning,0827.8,5.00,000.00,024.3,023.6,000.0,032.9,026.2,15.7,0000.0,0006.84,0001.76,0001.17
2024-02-21 07:58:00,SystemResetWarning,0827.9,5.01,000.00,024.3,023.6,000.0,032.9,026.2,15.6,0000.0,0007.39,0001.76,0001.16
2024-02-21 07:59:00,SystemResetWarning,0828.1,5.01,000.00,024.3,023.6,000.0,032.9,026.2,15.5,0000.0,0007.17,0001.69,0001.16
